Tracking 19574 objects as of 16-Feb-2019
HD Live streaming from Space Station
objects crossing your sky now

MOLNIYA 3-41

Track MOLNIYA 3-41 now!
MOLNIYA 3-41 is classified as:


NORAD ID: 21706
Int'l Code: 1991-065A
Perigee: 1,635.1 km
Apogee: 38,087.3 km
Inclination: 64.4 °
Period: 704.7 minutes
Semi major axis: 26232 km
RCS: 14.2786 m2 (large)
Launch date: September 17, 1991
Source: Commonwealth of Independent States (former USSR) (CIS)
Launch site: PLESETSK MISSILE AND SPACE COMPLEX (PKMTR)
aabbcc
Your satellite tracking list
Your tracking list is empty




NASA's NSSDC Master Catalog

Two Line Element Set (TLE):
1 21706U 91065A   19043.43613719  .00001020  00000-0 -14983-1 0  9998
2 21706  64.3764 297.4185 6947986 269.3873 343.4863  2.04339003201986
Source of the keplerian elements: AFSPC